Regional Weather Roundup
Issued by NWS State College, PA

Home | Current Version | Previous Version | Graphics & Text | Print | Product List | Glossary Off
Versions: 1 2 3 4 5 6 7 8 9 10 11 12 13 14 15 16 17 18 19 20 21 22 23 24 25 26 27 28 29 30 31 32 33 34 35 36 37 38 39 40 41 42 43 44 45 46 47 48 49 50

000
ASUS41 KCTP 270410
RWRCTP

REGIONAL WEATHER ROUNDUP
NATIONAL WEATHER SERVICE STATE COLLEGE PA
1100 PM EST MON JAN 26 2015

Note: "fair" indicates few or no clouds below 12,000 feet with no
significant weather and/or obstructions to visibility.

* = STATION THAT DOES NOT REPORT PRECIPITATION /E.G. RAIN...SNOW...ETC/
    THUNDER OR FOG.

PAZ002>004-007>009-013>016-020>023-029>032-270500-
WESTERN PENNSYLVANIA

CITY           SKY/WX    TMP DP  RH WIND       PRES   REMARKS
ERIE           CLOUDY    20  14  77 NE9       29.89S WCI   9
MEADVILLE      CLOUDY    18  14  84 N3        29.82S
FRANKLIN*      CLOUDY    18  12  79 NW5       29.82S WCI  11
NEW CASTLE     CLOUDY    19  15  84 CALM      29.87S
BEAVER COUNTY  NOT AVBL
BUTLER*        CLOUDY    19  16  86 W7        29.84S WCI  10
PITTSBURGH INT FLURRIES  20  17  88 NW12      29.84S WCI   8
PITTSBURGH     CLOUDY    21  15  78 NW10G16   29.82R WCI  10
INDIANA*       CLOUDY    21  19  93 NW3       29.83R FOG
LATROBE        CLOUDY    23  23 100 W12       29.83R WCI  12
WASHINGTON CO* CLOUDY    21  18  86 CALM      29.86R
$$

PAZ004>006-010>012-017>019-024>028-033>037-041-042-045-046-049>053-270500-
CENTRAL PENNSYLVANIA

CITY           SKY/WX    TMP DP  RH WIND       PRES   REMARKS
BRADFORD       LGT SNOW  15   9  76 E3        29.75F
DUBOIS         CLOUDY    18  15  88 N7        29.76R FOG     WCI   9
CLEARFIELD     LGT SNOW  19  16  88 NE3       29.78S FOG
JOHNSTOWN      LGT SNOW  18  15  88 CALM      29.71R FOG
ALTOONA        LGT SNOW  20  19  96 CALM      29.77S FOG
STATE COLLEGE  FLURRIES  22  20  92 N3        29.79S
WILLIAMSPORT   LGT SNOW  24  20  84 W6        29.82F FOG
SELINSGROVE    CLOUDY    25  21  85 N5        29.81F
FT INDIANTOWN  CLOUDY    26  19  75 VRB7      29.77F
CAPITAL CITY   FLURRIES  26  21  81 N5        29.79F
HARRISBURG     CLOUDY    25  20  81 NW7       29.78F
YORK           LGT SNOW  24  21  88 NW5       29.76F FOG
$$

PAZ038>040-043-044-047-048-054-055-060>062-067>071-270500-
EASTERN PENNSYLVANIA

CITY           SKY/WX    TMP DP  RH WIND       PRES   REMARKS
SCRANTON       CLOUDY    24  15  68 NE12      29.77F WCI  13
MOUNT POCONO   CLOUDY    19  14  81 NE12G23   29.68F WCI   7
ALLENTOWN      CLOUDY    25  17  72 NE9       29.76F
QUAKERTOWN*    NOT AVBL
READING        CLOUDY    25  18  74 NE8       29.76S
LANCASTER      CLOUDY    24  18  77 NE14      29.75S WCI  12
COATESVILLE    MOCLDY    25  21  86 N10G18    29.71S WCI  15
POTTSTOWN      CLOUDY    24  17  74 N8        29.74F
BLUE BELL      CLOUDY    30  23  74 NE7       29.71S
DOYLESTOWN     CLOUDY    25  20  81 NE13G23   29.70F WCI  14
WILLOW GROVE   NOT AVBL
NORTH PHILA    CLOUDY    29  19  66 NE20G26   29.72F
PHILADELPHIA   FLURRIES  29  22  75 N15       29.71F
$$


USA.gov is the U.S. government's official web portal to all federal, state and local government web resources and services.